Tracking 27122 objects as of 26-Mar-2023
HD Live streaming from Space Station
objects crossing your sky now

STARLINK-3291

Track STARLINK-3291 now!
10-day predictions
STARLINK-3291 is classified as:


NORAD ID: 50175
Int'l Code: 2021-125V
Perigee: 546.4 km
Apogee: 547.4 km
Inclination: 53.2 °
Period: 95.4 minutes
Semi major axis: 6917 km
RCS: Unknown
Launch date: December 18, 2021
Source: United States (US)
Launch site: AIR FORCE WESTERN TEST RANGE (AFWTR)
Your satellite tracking list
Your tracking list is empty




NASA's NSSDC Master Catalog

Two Line Element Set (TLE):
1 50175U 21125V   23084.66203307  .00000874  00000-0  73002-4 0  9998
2 50175  53.2153  57.5493 0000726  59.7351 300.3713 15.08838945 73555
Source of the keplerian elements: AFSPC